TimeEST,TemperatureF,Dew PointF,Humidity,Sea Level PressureIn,VisibilityMPH,Wind Direction,Wind SpeedMPH,Gust SpeedMPH,PrecipitationIn,Events,Conditions,WindDirDegrees,DateUTC
12:53 AM,9.0,5.0,84,30.30,10.0,Calm,Calm,-,N/A,,Clear,0,2012-11-28 05:53:00
1:53 AM,10.0,5.0,80,30.30,10.0,Calm,Calm,-,N/A,,Clear,0,2012-11-28 06:53:00
2:53 AM,8.1,3.0,80,30.30,10.0,Calm,Calm,-,N/A,,Clear,0,2012-11-28 07:53:00
3:53 AM,8.1,3.9,83,30.28,10.0,Calm,Calm,-,N/A,,Clear,0,2012-11-28 08:53:00
4:53 AM,8.1,3.9,83,30.28,10.0,Calm,Calm,-,N/A,,Clear,0,2012-11-28 09:53:00
5:53 AM,8.1,1.9,76,30.28,10.0,Calm,Calm,-,N/A,,Clear,0,2012-11-28 10:53:00
6:53 AM,7.0,1.9,80,30.28,10.0,Calm,Calm,-,N/A,,Clear,0,2012-11-28 11:53:00
7:53 AM,12.9,7.0,77,30.27,10.0,Calm,Calm,-,N/A,,Clear,0,2012-11-28 12:53:00
8:53 AM,17.1,10.9,77,30.27,10.0,NNE,4.6,-,N/A,,Clear,20,2012-11-28 13:53:00
9:53 AM,21.9,14.0,72,30.25,10.0,Calm,Calm,-,N/A,,Clear,0,2012-11-28 14:53:00
10:53 AM,26.1,12.9,58,30.22,10.0,East,6.9,-,N/A,,Clear,90,2012-11-28 15:53:00
11:53 AM,28.9,12.9,51,30.19,10.0,Variable,3.5,-,N/A,,Clear,0,2012-11-28 16:53:00
12:53 PM,30.0,12.9,49,30.16,10.0,Variable,3.5,-,N/A,,Clear,0,2012-11-28 17:53:00
1:53 PM,30.9,12.0,46,30.13,10.0,North,3.5,-,N/A,,Clear,10,2012-11-28 18:53:00
2:53 PM,30.0,12.0,47,30.13,10.0,Calm,Calm,-,N/A,,Clear,0,2012-11-28 19:53:00
3:53 PM,25.0,12.9,60,30.13,10.0,Calm,Calm,-,N/A,,Clear,0,2012-11-28 20:53:00
4:53 PM,23.0,14.0,68,30.12,10.0,Calm,Calm,-,N/A,,Clear,0,2012-11-28 21:53:00
5:53 PM,21.9,14.0,72,30.13,10.0,Calm,Calm,-,N/A,,Clear,0,2012-11-28 22:53:00
6:53 PM,19.9,15.1,81,30.11,10.0,Calm,Calm,-,N/A,,Partly Cloudy,0,2012-11-28 23:53:00
7:53 PM,18.0,14.0,84,30.10,10.0,Calm,Calm,-,N/A,,Clear,0,2012-11-29 00:53:00
8:53 PM,15.1,10.9,84,30.09,10.0,Calm,Calm,-,N/A,,Clear,0,2012-11-29 01:53:00
9:53 PM,12.9,10.0,88,30.07,10.0,Calm,Calm,-,N/A,,Clear,0,2012-11-29 02:53:00
10:53 PM,12.9,9.0,84,30.07,10.0,SSW,3.5,-,N/A,,Clear,200,2012-11-29 03:53:00
11:53 PM,10.9,8.1,88,30.06,10.0,Calm,Calm,-,N/A,,Clear,0,2012-11-29 04:53:00